Location: Saint Louis
(38.6272°N, 90.1978°W)
Time: 11:49:45
(UTC-05:00)

ISS - Pass Details

Date: 26 November 2013
Orbit: 402 x 406 km, 51.6° (Epoch: 27 August)

Event Time Altitude Azimuth Distance (km) Brightness Sun altitude
Exits shadow 04:56:46 12° 177° (S) 1,360 -0.6 -22.7°
Drops below altitude 10° 04:57:03 10° 174° (S) 1,453 -0.4 -22.7°
Sets 04:59:22 0° 159° (SSE) 2,301 0.9 -22.2°
